Total_Precipitation_Accumulation
1.78 1.84 1.92 2.02 2.05 2.08 2.12 2.09 2.09 2.10 2.12 2.11 2.22 2.28 2.29 2.30 2.51 2.72 2.61 2.85 2.99 3.03 2.82 2.80 2.78 2.84 2.88 2.72 2.84 2.92 3.03 3.42 3.41 2.69 2.52 2.58 2.72 2.75 2.79 2.65 2.51 2.52 2.29
1.85 1.97 2.00 2.11 2.15 2.08 2.12 2.31 2.31 2.27 2.25 2.25 2.34 2.44 2.36 2.35 2.53 2.54 2.38 2.48 2.70 2.92 3.15 3.30 3.06 3.09 3.12 3.00 3.01 2.98 3.05 3.35 3.39 3.12 2.86 2.81 2.88 2.84 2.88 2.69 2.26 2.15 2.23
1.65 1.84 2.09 2.11 2.15 2.33 2.52 2.66 2.67 2.56 2.50 2.51 2.59 2.52 2.54 2.60 2.59 2.47 2.48 2.52 2.59 2.66 2.94 3.22 3.25 3.47 3.20 3.22 3.16 3.03 3.05 3.08 3.29 3.10 2.85 3.01 3.00 2.95 2.91 2.54 2.34 2.41 2.20
1.76 1.99 2.18 2.40 2.56 2.71 2.71 2.79 2.79 2.75 2.74 2.72 2.73 2.66 2.61 2.66 2.69 2.67 2.67 2.61 2.64 2.59 2.67 2.81 2.96 3.26 3.25 3.36 3.19 3.18 3.30 3.38 3.51 3.34 3.12 3.19 3.30 3.30 3.19 2.82 2.69 2.57 2.41
2.07 2.22 2.28 2.40 2.57 2.83 3.05 3.04 2.97 2.88 2.77 2.95 2.94 2.85 2.85 2.82 2.60 2.76 2.99 2.94 2.98 2.74 2.64 2.62 2.62 2.88 2.98 3.08 2.79 2.99 3.35 3.42 3.47 3.39 3.25 3.26 3.25 3.42 3.14 2.98 2.85 2.84 2.72
2.52 2.65 2.79 2.90 3.03 3.16 3.24 3.29 3.35 3.29 3.22 3.16 3.06 3.10 3.05 2.76 2.89 2.98 2.91 2.95 3.14 3.09 2.92 2.86 2.72 2.66 2.68 2.73 2.73 2.83 3.01 3.02 3.09 3.23 3.15 3.12 3.15 3.30 3.48 3.36 3.20 3.06 2.80
2.66 2.77 2.88 3.00 3.19 3.35 3.42 3.47 3.34 3.32 3.29 3.19 3.17 3.21 3.11 3.13 3.09 2.85 2.72 2.73 2.83 2.92 2.96 2.92 2.58 2.41 2.67 2.56 2.71 2.73 2.55 2.49 2.53 2.70 2.71 2.71 3.19 3.52 3.87 3.52 3.35 3.18 2.88
2.83 2.92 2.98 3.03 3.13 3.33 3.55 3.49 3.35 3.35 3.30 3.27 3.21 3.11 3.04 2.92 2.99 2.74 2.73 2.59 2.54 2.52 2.66 2.77 2.69 2.56 2.59 2.73 2.63 2.35 2.12 2.10 2.17 2.09 2.08 2.34 2.82 3.46 3.82 3.79 3.82 3.56 3.19
2.56 2.74 2.76 2.91 3.10 3.20 3.24 3.28 3.39 3.39 3.19 3.04 2.93 2.92 2.89 2.95 3.21 2.91 2.78 2.52 2.50 2.36 2.41 2.44 2.44 2.29 2.46 2.62 2.48 2.22 2.01 1.89 1.96 1.98 1.94 2.17 2.45 2.83 3.28 3.54 3.47 3.35 2.92
2.48 2.69 2.87 3.03 3.20 3.25 3.29 3.44 3.51 3.49 3.44 3.40 3.26 3.21 3.13 3.09 3.32 3.04 2.86 2.56 2.52 2.46 2.52 2.52 2.57 2.29 2.24 2.21 2.08 2.08 1.89 1.78 1.93 1.91 1.85 1.87 1.99 2.32 2.82 2.91 3.00 3.17 2.88
2.54 2.64 2.79 2.99 3.23 3.51 3.70 3.64 3.63 3.62 3.53 3.37 3.23 3.10 3.08 3.09 3.11 2.91 2.76 2.40 2.31 2.40 2.29 2.22 2.24 2.23 1.99 1.82 1.77 1.73 1.69 1.81 1.92 1.87 1.77 1.75 1.88 2.06 2.23 2.51 2.79 2.88 2.74
2.69 2.79 2.87 3.09 3.17 3.35 3.62 3.64 3.56 3.55 3.46 3.37 3.37 3.36 3.28 3.13 2.84 2.61 2.51 2.37 2.36 2.33 2.32 2.30 2.29 2.28 1.98 1.82 1.64 1.51 1.62 1.67 1.69 1.80 1.69 1.58 1.60 1.72 1.98 2.30 2.64 2.77 2.70
2.66 2.83 3.04 3.17 3.26 3.40 3.57 3.63 3.62 3.54 3.39 3.25 3.16 3.00 2.98 2.99 2.90 2.67 2.39 2.20 2.16 2.00 2.16 2.51 2.54 2.45 2.19 1.88 1.78 1.80 1.76 1.63 1.64 1.65 1.55 1.47 1.52 1.70 1.99 2.34 2.63 2.85 2.80
2.63 2.70 2.88 3.05 3.21 3.38 3.41 3.28 3.14 3.00 2.93 2.91 2.76 2.65 2.67 2.73 2.60 2.50 2.33 2.23 2.24 2.11 2.13 2.44 2.59 2.56 2.40 2.14 2.02 1.95 1.74 1.68 1.76 1.73 1.74 1.77 1.90 2.03 2.17 2.32 2.57 2.75 2.82
2.64 2.73 2.75 2.78 2.88 3.06 3.13 3.08 2.95 2.77 2.63 2.59 2.47 2.49 2.49 2.41 2.44 2.48 2.30 2.16 2.15 2.22 2.30 2.49 2.62 2.71 2.72 2.63 2.52 2.44 2.32 2.17 2.00 1.94 2.01 2.02 2.07 2.15 2.19 2.36 2.64 2.74 2.67
2.75 2.61 2.55 2.49 2.51 2.60 2.62 2.65 2.78 2.64 2.64 2.50 2.37 2.29 2.19 2.22 2.27 2.22 2.11 2.02 2.04 2.19 2.24 2.34 2.59 2.79 2.87 2.97 3.01 2.88 2.64 2.43 2.25 2.24 2.21 2.22 2.26 2.25 2.28 2.44 2.67 2.76 2.62
2.72 2.55 2.47 2.41 2.41 2.37 2.35 2.39 2.53 2.60 2.55 2.43 2.38 2.21 2.04 2.07 2.05 2.01 1.97 1.91 1.96 2.06 2.02 2.16 2.30 2.45 2.67 2.90 2.98 2.92 2.67 2.53 2.55 2.54 2.47 2.48 2.54 2.50 2.46 2.53 2.72 2.84 2.78
2.59 2.67 2.58 2.45 2.47 2.49 2.49 2.46 2.46 2.52 2.51 2.39 2.36 2.30 2.01 1.88 1.86 1.81 1.80 1.71 1.60 1.64 1.70 1.89 2.10 2.28 2.48 2.75 2.93 2.96 2.87 2.77 2.75 2.82 2.83 2.78 2.79 2.68 2.53 2.44 2.58 2.71 2.76
2.49 2.54 2.59 2.57 2.53 2.59 2.60 2.50 2.41 2.34 2.32 2.22 2.15 2.19 2.14 1.95 1.83 1.79 1.74 1.54 1.46 1.48 1.58 1.63 1.73 1.96 2.23 2.49 2.75 2.92 2.91 2.80 2.74 2.80 2.81 2.79 2.83 2.81 2.63 2.46 2.49 2.71 2.76
2.46 2.61 2.53 2.52 2.50 2.46 2.48 2.46 2.42 2.43 2.35 2.25 2.16 2.12 2.08 1.92 1.75 1.84 1.89 1.82 1.71 1.65 1.64 1.65 1.77 1.95 2.17 2.42 2.62 2.73 2.78 2.78 2.73 2.70 2.63 2.58 2.62 2.64 2.49 2.42 2.41 2.50 2.54
2.26 2.37 2.44 2.22 2.23 2.35 2.34 2.35 2.39 2.42 2.40 2.30 2.18 2.15 2.03 1.75 1.80 1.91 2.03 2.06 1.96 1.84 1.77 1.76 1.80 1.90 2.08 2.31 2.48 2.63 2.70 2.73 2.74 2.74 2.69 2.59 2.57 2.59 2.53 2.49 2.48 2.50 2.51
2.26 2.14 2.11 2.13 2.26 2.34 2.41 2.43 2.41 2.34 2.30 2.27 2.23 2.20 2.15 1.82 1.85 1.93 1.99 2.07 2.10 2.06 2.00 2.00 2.00 2.00 2.08 2.25 2.43 2.55 2.59 2.59 2.63 2.68 2.72 2.71 2.71 2.70 2.75 2.76 2.72 2.67 2.66
2.12 2.09 2.03 2.06 2.23 2.39 2.43 2.42 2.44 2.38 2.34 2.34 2.30 2.21 2.14 2.01 2.00 2.10 2.16 2.19 2.18 2.15 2.10 2.07 2.03 2.02 2.04 2.08 2.17 2.33 2.43 2.42 2.42 2.52 2.63 2.59 2.55 2.56 2.62 2.65 2.66 2.69 2.66
1.88 2.00 2.03 2.00 2.08 2.13 2.15 2.16 2.16 2.13 2.14 2.15 2.18 2.22 2.20 2.17 2.20 2.27 2.25 2.20 2.11 2.03 2.02 1.99 1.94 1.91 1.93 1.99 2.00 1.99 2.07 2.18 2.18 2.22 2.34 2.41 2.39 2.36 2.42 2.47 2.56 2.67 2.78
1.73 1.89 2.00 1.97 1.92 1.96 1.94 1.87 1.87 1.94 2.05 2.16 2.19 2.19 2.19 2.17 2.14 2.10 2.01 1.92 1.85 1.89 1.91 1.88 1.84 1.74 1.70 1.71 1.75 1.79 1.96 2.03 2.04 2.03 2.02 2.12 2.17 2.20 2.24 2.31 2.42 2.58 2.76
1.73 1.84 1.87 1.87 1.84 1.88 1.93 1.91 1.87 1.91 2.03 2.08 2.09 2.07 2.06 2.04 2.01 1.95 1.87 1.80 1.77 1.77 1.82 1.85 1.78 1.64 1.59 1.57 1.58 1.64 1.66 1.62 1.71 1.85 1.84 1.88 2.04 2.15 2.16 2.19 2.24 2.38 2.51